Terminal Aerodrome Forecast
Issued by NWS

Home | Current Version | Previous Version | Text Only | Print | Product List | Glossary On
Versions: 1 2 3 4 5 6 7 8 9 10 11 12 13
404
FTUS45 KRIW 201128
TAFCOD
TAF
KCOD 201128Z 2012/2112 24010G20KT P6SM FEW100
     FM201800 21011KT P6SM SCT100
     FM210200 25015G25KT P6SM SCT100 BKN200
      AMD LTD TO CLD VIS AND WIND=

USA.gov is the U.S. government's official web portal to all federal, state and local government web resources and services.